Flag for Belgium Weather past 2 weeks in Kortrijk, Belgium

Now
52 °F

Scattered clouds.


Feels Like: 46 °F
Forecast: 39 / 60 °F
Wind: 17 mph from North

Location: Lille Airport


UV Index: 3 (Moderate)

Visibility: N/A


Pressure: 30.07 "Hg

Humidity: 50%

Dew point: 34 °F

Location of KortrijkLocation

Historic Weather in Kortrijk

°F

Kortrijk temperature yesterday

Maximum temperature yesterday: 66 °F (at 4:00 PM)
Minimum temperature yesterday: 39 °F (at 5:30 AM)
Average temperature yesterday: 53 °F

Past Weeks' High & Low Weather Summary

 TemperatureHumidityPressure
High72 °F (Apr 7, 4:00 PM)100% (Apr 5, 7:00 AM)30.42 "Hg (Apr 5, 7:00 AM)
Low37 °F (Apr 15, 4:00 AM)28% (Apr 17, 6:00 PM)29.56 "Hg (Apr 3, 2:00 PM)
Average53 °F68%30.09 "Hg
* Reported Apr 3 2:00 PM — Apr 18 2:30 PM, Kortrijk, Weather by CustomWeather, © 2014

Note: Actual official high and low records may vary slightly from our data, if they occured in-between our weather recording intervals... More about our weather records

Advertising

Historic Weather Conditions — Data for Previous 24 hours

 ConditionsComfort  
Time TempWeatherWind HumidityBarometerVisibility
2:30 PM
Apr 18
54 °FScattered clouds.16 mph44%30.07 "HgN/A
2:00 PM54 °FScattered clouds.14 mph47%30.07 "HgN/A
1:30 PM54 °FScattered clouds.15 mph47%30.07 "HgN/A
1:00 PM52 °FScattered clouds.16 mph50%30.07 "HgN/A
12:30 PM54 °FScattered clouds.15 mph47%30.07 "HgN/A
12:00 PM54 °FPartly sunny.15 mph51%30.04 "HgN/A
11:30 AM52 °FPartly sunny.14 mph50%30.07 "HgN/A
11:00 AM50 °FPartly sunny.13 mph62%30.07 "HgN/A
10:30 AM50 °FPartly sunny.14 mph58%30.07 "HgN/A
10:00 AM48 °FPartly sunny.17 mph62%30.04 "HgN/A
9:30 AM50 °FPartly sunny.14 mph62%30.04 "HgN/A
9:00 AM50 °FPassing clouds.12 mph62%30.04 "HgN/A
8:30 AM48 °FSunny.12 mph66%30.04 "Hg10 mi
8:00 AM48 °FSunny.8 mph66%30.04 "Hg10 mi
7:30 AM46 °FClear.8 mph71%30.01 "Hg10 mi
7:00 AM46 °FClear.7 mph76%30.01 "Hg10 mi
6:30 AM48 °FClear.7 mph76%30.01 "Hg10 mi
6:00 AM48 °FClear.8 mph76%30.01 "Hg10 mi
5:30 AM48 °FClear.9 mph76%29.98 "Hg10 mi
5:00 AM48 °FPassing clouds.8 mph76%29.98 "HgN/A
4:30 AM50 °FMostly cloudy.13 mph71%29.98 "HgN/A
4:00 AM50 °FPassing clouds.10 mph71%29.98 "HgN/A
3:30 AM52 °FMostly cloudy.12 mph67%29.98 "HgN/A
3:00 AM52 °FOvercast.12 mph67%29.98 "HgN/A
2:30 AM52 °FMostly cloudy.9 mph72%30.01 "HgN/A
2:00 AM52 °FMostly cloudy.10 mph72%30.01 "HgN/A
1:30 AM52 °FPassing clouds.8 mph77%30.01 "HgN/A
1:00 AM52 °FPassing clouds.10 mph82%30.01 "Hg4 mi
12:30 AM54 °FPassing clouds.8 mph72%30.01 "HgN/A
12:00 AM54 °FPartly cloudy.7 mph72%30.01 "HgN/A
11:30 PM
Apr 17
54 °FClear.8 mph67%30.01 "Hg10 mi
11:00 PM54 °FPassing clouds.9 mph63%30.01 "HgN/A
10:30 PM55 °FPassing clouds.9 mph55%30.01 "HgN/A
10:00 PM55 °FClear.8 mph51%30.01 "Hg10 mi
9:30 PM55 °FSunny.10 mph47%30.01 "Hg10 mi
9:00 PM57 °FSunny.13 mph44%30.01 "Hg10 mi
8:30 PM59 °FSunny.14 mph39%30.01 "Hg10 mi
8:00 PM59 °FSunny.14 mph39%30.01 "Hg10 mi
7:00 PM63 °FSunny.14 mph34%30.01 "Hg10 mi
6:30 PM63 °FSunny.14 mph32%30.01 "Hg10 mi
6:00 PM64 °FSunny.15 mph28%30.04 "Hg10 mi
5:30 PM64 °FSunny.14 mph30%30.04 "Hg10 mi
5:00 PM66 °FSunny.13 mph32%30.04 "Hg10 mi
4:30 PM66 °FPassing clouds.12 mph30%30.04 "HgN/A
4:00 PM66 °FPassing clouds.12 mph30%30.07 "HgN/A
3:30 PM64 °FPassing clouds.10 mph32%30.07 "HgN/A
3:00 PM64 °FPassing clouds.10 mph32%30.09 "HgN/A
Weather by CustomWeather, © 2014

See weather overview